Regional Weather Roundup
Issued by NWS

Home | Current Version | Previous Version | Text Only | Print | Product List | Glossary On
Versions: 1 2 3 4 5 6 7 8 9 10 11 12 13 14 15 16 17 18 19 20 21 22 23 24 25 26 27 28 29 30 31 32 33 34 35 36 37 38
000
ASUS45 KBOU 272107
RWRCO

WEATHER ROUNDUP FOR COLORADO
NATIONAL WEATHER SERVICE DENVER/BOULDER CO
200 PM MST SAT DEC 27 2014

NOTE: "FAIR" INDICATES FEW OR NO CLOUDS BELOW 12000 FEET WITH NO
SIGNIFICANT WEATHER AND/OR OBSTRUCTIONS TO VISIBILITY.

COZ001>005-013-030-031-272200-
...NORTHWEST COLORADO...

CITY           SKY/WX    TMP DP  RH WIND       PRES   REMARKS
CRAIG          SUNNY     17   9  70 E3        30.22F
HAYDEN         SUNNY     18   7  62 CALM      30.19F
MEEKER         SUNNY     16   8  71 SE5       30.20F WCI   9
MOUNT WERNER   NOT AVBL
STEAMBOAT SPGS MOSUNNY   17   6  63 CALM      30.18S
WALDEN         SUNNY     12   1  62 S10G17    30.06S WCI  -1
$$

COZ006>008-011-272200-
...WEST CENTRAL VALLEYS...

CITY           SKY/WX    TMP DP  RH WIND       PRES   REMARKS
GRAND JUNCTION SUNNY     26  11  52 CALM      30.27F
MONTROSE       SUNNY     25  10  53 CALM      30.26F
EAGLE          MOSUNNY   25  10  54 VRB7      30.19F WCI  17
RIFLE          SUNNY     24   6  46 CALM      30.24F
DELTA          SUNNY     30  13  49 CALM      30.27F
NUCLA          SUNNY     28   9  43 W3        30.26F
$$

COZ017>023-064>068-272200-
...SOUTHWEST COLORADO...

CITY           SKY/WX    TMP DP  RH WIND       PRES   REMARKS
DURANGO        MOSUNNY   22  13  68 W3        30.17F
CORTEZ         SUNNY     31  10  41 W12       30.20F WCI  22
PAGOSA SPRINGS SUNNY     21  11  67 CALM      30.13F
TELLURIDE      SUNNY     19   3  48 W9        30.10S WCI   8
WOLF CREEK PAS NOT AVBL
$$

COZ009-010-012-014-032>034-037-058>063-272200-
...CENTRAL COLORADO...

CITY           SKY/WX    TMP DP  RH WIND       PRES   REMARKS
ASPEN          SUNNY     16   2  54 NW3       30.11F
BUENA VISTA    SUNNY     20   3  47 E6        30.03F WCI  13
COPPER MTN     SUNNY      5  -4  66 W22G28    29.92S WCI -16
BERTHOUD PASS  PTSUNNY   -6 -11  77 MISG      29.87S
COTTONWOOD PAS SUNNY     21  -2  35 SW9G18    29.97F WCI  11
GUNNISON       SUNNY      7  -8  51 E6        30.17S WCI  -3
KREMMLING      MOSUNNY   18   5  57 E5        30.15S WCI  11
LEADVILLE      SUNNY     10  -5  50 NW13G21   29.98F WCI  -5
MONARCH PASS   CLOUDY     0  -4  85 MISG      30.01F
SALIDA         NOT AVBL
SUNLIGHT       FLURRIES N/A N/A N/A CALM      30.03S
WILKERSON PASS SUNNY      9   1  72 W12G20    29.91S WCI  -6
$$

COZ069>075-272200-
...SAN LUIS VALLEY/SANGRE DE CRISTO MOUNTAINS...

CITY           SKY/WX    TMP DP  RH WIND       PRES   REMARKS
ALAMOSA        SUNNY     21   5  50 MISG      30.11F
LA VETA PASS   NOT AVBL
SAGUACHE       SUNNY     14   5  67 SE8       30.12R WCI   3
$$

COZ035-036-038>040-272200-
...NORTHERN COLORADO FRONT RANGE...

CITY           SKY/WX    TMP DP  RH WIND       PRES   REMARKS
DENVER INTL AP MOSUNNY   26  13  57 SE13      30.05F WCI  15
DMNS CITY PARK   N/A     30   7  37 SE6G12    30.04F WCI  24
AURORA         MOSUNNY   27  13  56 SE9       30.05F WCI  18
FRONT RANGE AP SUNNY     28  18  64 SE8       30.06F WCI  20
ERIE MUNI ARPT   N/A     29  10  45 S12       30.05F WCI  19
BOULDER MUN AP SUNNY     30  10  43 SE8       30.03F WCI  23
CENTENNIAL     MOSUNNY   25  10  53 SE9       30.03F WCI  15
BROOMFIELD     MOSUNNY   28   9  43 SE8       30.04F WCI  20
FORT COLLINS   SUNNY     19  10  68 NE6       30.07F WCI  11
LONGMONT       SUNNY     34  11  38 SE5       30.06F WCI  30
$$

COZ041-046-047-076>085-087-088-272200-
...PIKES PEAK/PALMER DIVIDE AND SOUTHERN FOOTHILLS...

CITY           SKY/WX    TMP DP  RH WIND       PRES   REMARKS
COLO. SPRINGS  MOSUNNY   26   7  44 S13       30.06F WCI  15
A. F. ACADEMY  SUNNY     24   7  47 SE12      30.03F WCI  13
ELLICOTT       NOT AVBL
FALCON         SUNNY     25   6  44 S9        30.04F WCI  15
FORT CARSON    SUNNY     28   7  41 S13       30.05F WCI  17
LIMON          SUNNY     24  10  55 S7        30.09F WCI  16
MONUMENT HILL  SUNNY     25  10  54 S13       30.00S WCI  13
TRINIDAD       SUNNY     18  11  74 S6        30.11F WCI  10
$$

COZ042>045-048>051-090-091-272200-
...NORTHEAST COLORADO...

CITY           SKY/WX    TMP DP  RH WIND       PRES   REMARKS
GREELEY ARPT   SUNNY     12   7  79 NE6       30.08F WCI   3
AKRON          SUNNY     21  12  68 SW8       30.09F WCI  11
BURLINGTON     SUNNY     26  12  55 NW7       30.15S WCI  18
WRAY           SUNNY     30  15  53 W6        30.15F WCI  24
STERLING       SUNNY     21  14  73 S5        30.13S WCI  15
HOLYOKE        SUNNY     32  14  47 W6        30.14S WCI  26
FORT MORGAN    SUNNY     19  10  68 CALM      30.11S
$$

COZ086-089-092>099-272200-
...SOUTHEAST COLORADO...

CITY           SKY/WX    TMP DP  RH WIND       PRES   REMARKS
PUEBLO         SUNNY     31  10  41 SE7       30.12F WCI  24
LA JUNTA       SUNNY     29  15  56 SW7       30.17F WCI  22
LAMAR          SUNNY     31  17  56 W9        30.18F WCI  23
SPRINGFIELD      N/A     31  15  52 NW7       30.16F WCI  24
$$


USA.gov is the U.S. government's official web portal to all federal, state and local government web resources and services.